Sarnia, Ontario

9:28 PM EDT on July 26, 2017 (GMT -0400)
Sarnia (Hadfield)

Weather History for CYZR - March, 2014

Change the Weather History Date:

Monday, March 24, 2014

  Actual Average Record
Temperature  
Mean Temperature 13 °F -  
Max Temperature 28 °F 48 °F 70 °F (1964)
Min Temperature -2 °F 33 °F -4 °F (2017)
Degree Days  
Heating Degree Days 52    
Moisture  
Dew Point 9 °F    
Average Humidity 60    
Maximum Humidity 86    
Minimum Humidity 19    
Precipitation  
Precipitation 0.00 in 0.09 in - ()
Sea Level Pressure  
Sea Level Pressure 30.22 in    
Wind  
Wind Speed 6 mph ()    
Max Wind Speed 16 mph    
Max Gust Speed 23 mph    
Visibility 8.5 miles    
Events Snow    
Averages and records for this station are not official NWS values.
T = Trace of Precipitation, MM = Missing Value Source: Averaged Metar Reports

Daily Weather History Graph

Daily Weather History Graph

Search for Another Location

Airport or City:

Trip Planner

Search our weather history database for the weather conditions in past years. The results will help you decide how hot, cold, wet, or windy it might be!

Date:

Astronomy

Mar. 24, 2014 Rise Set
Actual Time 7:25 AM EDT 7:46 PM EDT
Civil Twilight 6:57 AM EDT 8:14 PM EDT
Nautical Twilight 6:23 AM EDT 8:48 PM EDT
Astronomical Twilight 5:49 AM EDT 9:22 PM EDT
Moon 3:02 AM EDT (3/24) 1:02 PM EDT (3/24)
Length of Visible Light 13h 17m
Length of Day
12h 20m
Last Quarter, 43% of the Moon is Illuminated
Mar 24
Last Quarter
Mar 30
New
Apr 7
First Quarter
Apr 15
Full
Apr 22
Last Quarter

Hourly Weather History & Observations

Time (EDT) Temp. Windchill Dew Point Humidity Pressure Visibility Wind Dir Wind Speed Gust Speed Precip Events Conditions
12:00 AM 21.2 °F 16.4 °F 8.6 °F 58% 30.36 in 9.0 mi SSW 3.5 mph - N/A   Overcast
1:00 AM 21.2 °F 11.7 °F 10.4 °F 63% 30.35 in 9.0 mi WNW 8.1 mph - N/A Snow Light Snow
1:12 AM 21.2 °F 10.9 °F 12.2 °F 68% 30.35 in 5.0 mi WNW 9.2 mph - N/A Snow Light Snow
1:22 AM 19.4 °F 9.5 °F 14.0 °F 80% 30.35 in 6.0 mi NW 8.1 mph - N/A Snow Light Snow
1:24 AM 19.4 °F 10.4 °F 14.0 °F 80% 30.35 in 5.0 mi WNW 6.9 mph - N/A Snow Light Snow
1:33 AM 19.4 °F 11.5 °F 14.0 °F 80% 30.35 in 7.0 mi WNW 5.8 mph - N/A Snow Light Snow
1:50 AM 19.4 °F 10.4 °F 12.2 °F 74% 30.35 in 9.0 mi West 6.9 mph - N/A   Overcast
2:00 AM 2 °F - -5 °F 59% 29.90 in - WNW 6.9 mph - -  
2:00 AM 19.4 °F 11.5 °F 12.2 °F 74% 30.35 in 9.0 mi West 5.8 mph - N/A   Overcast
3:00 AM 19.4 °F 11.5 °F 8.6 °F 63% 30.35 in 9.0 mi NW 5.8 mph - N/A   Overcast
4:00 AM 17.6 °F 10.7 °F 10.4 °F 73% 30.34 in 9.0 mi NNE 4.6 mph - N/A   Clear
5:00 AM 17.6 °F - 14.0 °F 86% 30.34 in 9.0 mi Variable 2.3 mph - N/A   Mostly Cloudy
6:00 AM 17.6 °F - 14.0 °F 86% 30.34 in 9.0 mi Calm Calm - N/A   Scattered Clouds
7:00 AM 17.6 °F - 12.2 °F 79% 30.34 in 9.0 mi Calm Calm - N/A   Overcast
8:00 AM 2 °F - -8 °F 46% 29.90 in - NW 9.2 mph - -  
8:00 AM 17.6 °F 7.3 °F 12.2 °F 79% 30.35 in 9.0 mi WNW 8.1 mph - N/A   Overcast
9:00 AM 17.6 °F 8.2 °F 8.6 °F 68% 30.34 in 9.0 mi WNW 6.9 mph - N/A   Mostly Cloudy
10:00 AM 19.4 °F 8.6 °F 5.0 °F 54% 30.34 in 9.0 mi NW 9.2 mph - N/A   Clear
11:00 AM 21.2 °F 13.6 °F 5.0 °F 50% 30.32 in 9.0 mi NW 5.8 mph - N/A   Clear
12:00 PM 21.2 °F 16.4 °F 5.0 °F 50% 30.30 in 9.0 mi South 3.5 mph - N/A   Clear
1:00 PM 24.8 °F 20.5 °F 3.2 °F 40% 30.27 in 9.0 mi Variable 3.5 mph - N/A   Scattered Clouds
2:00 PM 17 °F - -7 °F 19% 29.81 in - NW 11.5 mph - -  
2:00 PM 24.8 °F 14.6 °F 10.4 °F 54% 30.24 in 9.0 mi Variable 10.4 mph - N/A   Scattered Clouds
2:53 PM 28.4 °F 18.5 °F 8.6 °F 43% 30.21 in 9.0 mi WNW 11.5 mph - N/A   Mostly Cloudy
3:00 PM 26.6 °F 16.8 °F 6.8 °F 43% 30.20 in 9.0 mi West 10.4 mph 18.4 mph N/A   Mostly Cloudy
4:00 PM 28.4 °F 19.1 °F 8.6 °F 43% 30.17 in 9.0 mi West 10.4 mph 20.7 mph N/A   Overcast
5:00 PM 28.4 °F 18.0 °F 8.6 °F 43% 30.15 in 9.0 mi West 12.7 mph 18.4 mph N/A   Overcast
6:00 PM 28.4 °F 19.7 °F 10.4 °F 47% 30.14 in 9.0 mi WSW 9.2 mph 19.6 mph N/A   Overcast
6:42 PM 26.6 °F 19.1 °F 12.2 °F 55% 30.13 in 9.0 mi West 6.9 mph 18.4 mph N/A Snow Light Snow
6:54 PM 26.6 °F 14.7 °F 12.2 °F 55% 30.13 in 9.0 mi West 15.0 mph - N/A   Scattered Clouds
7:00 PM 26.6 °F 16.2 °F 12.2 °F 55% 30.13 in 9.0 mi West 11.5 mph 18.4 mph N/A   Mostly Cloudy
7:11 PM 26.6 °F 14.3 °F 14.0 °F 59% 30.14 in 6.0 mi West 16.1 mph 23.0 mph N/A Snow Light Snow
7:49 PM 24.8 °F 16.9 °F 17.6 °F 74% 30.13 in 9.0 mi WNW 6.9 mph - N/A   Mostly Cloudy
8:00 PM 10 °F - -5 °F 34% 29.91 in - NW 5.8 mph - -  
9:00 PM 24.8 °F 16.1 °F 15.8 °F 69% 30.13 in 9.0 mi West 8.1 mph - N/A   Mostly Cloudy
10:00 PM 24.8 °F 16.9 °F 15.8 °F 69% 30.12 in 9.0 mi West 6.9 mph - N/A   Scattered Clouds
11:00 PM 23.0 °F 15.8 °F 12.2 °F 63% 30.11 in 9.0 mi West 5.8 mph - N/A   Clear